Stations météo

réclame
Mon MeteoGroup
Leeuwarden, Pays-Bas (6270): Température de l'air & dewpoint: 10.12.2017 12:00:00 - 16.12.2017 12:00:00 (CET)Leeuwarden, Pays-Bas (6270): Température de l'air 5cm: 10.12.2017 12:00:00 - 16.12.2017 12:00:00 (CET)Leeuwarden, Pays-Bas (6270): Vitesse du vent & gusts: 10.12.2017 12:00:00 - 16.12.2017 12:00:00 (CET)Leeuwarden, Pays-Bas (6270): Direction du vent: 10.12.2017 12:00:00 - 16.12.2017 12:00:00 (CET)Leeuwarden, Pays-Bas (6270): reduced air pressure: 10.12.2017 12:00:00 - 16.12.2017 12:00:00 (CET)Leeuwarden, Pays-Bas (6270): visibility: 10.12.2017 12:00:00 - 16.12.2017 12:00:00 (CET)Leeuwarden, Pays-Bas (6270): Quantités de précipitations: 10.12.2017 12:00:00 - 16.12.2017 12:00:00 (CET)
Date & Time tt [°C] td [°C] tt 5cm [°C] ff [km/h] ff [knt] fx [km/h] fx [knt] dd ppp [hPa] vv [km] rr [mm]
16.12.2017 12:00:00 4,0 2,0 3,8 15 8 - - WNW 1009,1 5 -
16.12.2017 11:00:00 4,5 1,5 3,6 16 9 29 16 WNW 1008,6 10 0,0
16.12.2017 10:00:00 3,7 1,4 2,8 21 11 40 21 WNW 1007,8 10 0,0
16.12.2017 09:00:00 3,1 1,1 2,2 22 12 32 18 WNW 1007,1 10 0,0
16.12.2017 08:00:00 2,5 1,2 1,5 13 7 40 21 WNW 1006,5 10 0,2
16.12.2017 07:00:00 2,9 0,9 1,7 15 8 18 10 WNW 1005,7 10 0,0
16.12.2017 06:00:00 3,0 0,9 2,1 21 11 32 18 NW 1005,5 10 0,0
16.12.2017 05:00:00 2,0 0,6 0,6 11 6 22 12 WNW 1005,0 10 0,0
16.12.2017 04:00:00 3,0 0,7 1,4 15 8 25 14 NW 1004,7 10 0,0
16.12.2017 03:00:00 2,4 0,8 1,3 16 9 22 12 NW 1004,0 10 0,0
16.12.2017 02:00:00 3,1 1,7 0,9 15 8 25 14 W 1003,4 8 0,1
16.12.2017 01:00:00 1,5 1,5 0,6 8 4 14 8 - 1002,9 8 0,0
16.12.2017 00:00:00 1,9 1,4 1,0 8 4 11 6 WSW 1002,4 4,4 0,0
15.12.2017 23:00:00 2,6 2,3 2,4 9 5 14 8 SW 1002,0 5 0,2
15.12.2017 22:00:00 1,9 1,6 1,6 8 4 11 6 SSW 1001,5 5 0,0
15.12.2017 21:00:00 2,8 2,1 2,5 4 2 4 2 E 1001,2 5 0,0
15.12.2017 20:00:00 2,7 1,9 2,3 2 1 7 4 WSW 1000,4 6 0,0
15.12.2017 19:00:00 2,7 2,2 2,6 4 2 7 4 - 999,4 4,4 0,0
15.12.2017 18:00:00 2,6 2,2 2,5 2 1 4 2 WSW 998,8 4,1 0,0
15.12.2017 17:00:00 2,6 2,1 2,5 5 3 11 6 W 998,2 4,5 0,0
15.12.2017 16:00:00 2,4 2,1 2,4 8 4 14 8 SW 997,5 3,7 0,0
15.12.2017 15:00:00 2,3 2,1 2,4 9 5 14 8 SW 996,5 3,1 0,0
15.12.2017 14:00:00 2,4 2,3 2,5 9 5 22 12 SSW 995,7 3,4 0,0
15.12.2017 13:00:00 2,5 2,5 2,6 16 9 22 12 SSW 994,9 2,8 0,0
15.12.2017 12:00:00 2,4 2,4 2,6 13 7 25 14 SSW 994,4 2,2 0,0
15.12.2017 11:00:00 2,6 2,4 2,6 16 9 22 12 S 993,8 2,8 0,0
15.12.2017 10:00:00 2,4 2,0 2,3 13 7 22 12 S 992,8 2,7 0,0
15.12.2017 09:00:00 2,1 1,7 2,0 11 6 22 12 S 992,0 2,3 0,0
15.12.2017 08:00:00 1,9 1,7 1,8 16 9 25 14 S 991,2 2,6 0,0
15.12.2017 07:00:00 1,9 1,7 1,7 13 7 22 12 S 990,6 2,6 0,0
15.12.2017 06:00:00 1,4 1,4 1,2 15 8 25 14 S 990,0 1,7 0,0
15.12.2017 05:00:00 1,0 1,0 0,7 15 8 22 12 S 989,7 2,3 0,0
15.12.2017 04:00:00 1,1 0,9 0,4 11 6 18 10 S 988,8 2,7 0,0
15.12.2017 03:00:00 1,2 1,1 0,7 11 6 14 8 S 988,5 2,5 0,0
15.12.2017 02:00:00 1,0 0,9 0,2 11 6 22 12 S 988,1 2,7 0,0
15.12.2017 01:00:00 1,5 1,3 0,9 13 7 18 10 S 987,9 3,1 0,0
15.12.2017 00:00:00 1,3 1,0 0,6 11 6 18 10 S 987,9 3,0 0,0
14.12.2017 23:00:00 1,5 1,3 0,8 13 7 25 14 SSW 987,6 4,1 0,0
14.12.2017 22:00:00 2,3 1,8 1,7 13 7 25 14 SSW 987,6 6 0,0
14.12.2017 21:00:00 2,4 1,7 1,9 15 8 29 16 SSW 987,7 9 0,0
14.12.2017 20:00:00 2,8 1,9 2,3 15 8 29 16 SSW 987,8 10 0,0
14.12.2017 19:00:00 3,2 2,4 2,6 11 6 25 14 SSW 987,7 10 0,1
14.12.2017 18:00:00 3,9 2,8 3,5 15 8 29 16 SSW 987,8 10 0,0
14.12.2017 17:00:00 3,5 2,6 3,3 11 6 22 12 SSW 987,8 10 0,0
14.12.2017 16:00:00 3,6 1,9 3,2 16 9 29 16 SW 987,7 10 0,0
14.12.2017 15:00:00 4,9 1,9 4,7 18 10 36 19 WSW 987,9 10 0,0
14.12.2017 14:00:00 5,5 2,0 5,6 21 11 36 19 WSW 987,8 10 0,0
14.12.2017 13:00:00 6,0 2,2 5,9 22 12 36 19 WSW 988,1 10 0,0
14.12.2017 12:00:00 4,8 2,0 5,1 22 12 32 18 SW 988,2 10 0,0
14.12.2017 11:00:00 4,8 2,3 4,2 15 8 29 16 WSW 988,3 10 0,0
14.12.2017 10:00:00 3,0 1,4 2,3 22 12 40 21 W 988,0 10 0,7
14.12.2017 09:00:00 2,4 1,1 2,1 11 6 50 27 W 986,9 10 0,1
14.12.2017 08:00:00 3,5 2,0 3,0 24 13 47 25 W 986,7 10 1,3
14.12.2017 07:00:00 3,0 2,2 2,8 16 9 29 16 W 986,0 10 1,0
14.12.2017 06:00:00 2,1 1,6 1,7 16 9 36 19 W 985,8 6 2,2
14.12.2017 05:00:00 4,2 2,0 3,6 18 10 25 14 WSW 984,9 10 0,0
14.12.2017 04:00:00 4,1 1,9 3,6 24 13 36 19 WSW 984,7 10 0,1
14.12.2017 03:00:00 4,4 1,8 3,2 21 11 32 18 WSW 984,3 10 0,0
14.12.2017 02:00:00 4,5 1,6 3,5 26 14 36 19 W 983,8 10 0,0
14.12.2017 01:00:00 4,9 1,8 3,8 24 13 36 19 W 984,1 10 0,0
14.12.2017 00:00:00 4,4 3,0 3,9 21 11 50 27 W 982,7 10 0,5
13.12.2017 23:00:00 4,4 3,0 4,0 31 17 47 25 W 981,9 10 0,7
13.12.2017 22:00:00 5,2 4,2 4,8 24 13 50 27 SW 981,5 10 4,3
13.12.2017 21:00:00 4,9 4,7 4,8 26 14 43 23 S 983,0 4,6 2,4
13.12.2017 20:00:00 4,6 4,3 4,5 24 13 43 23 S 985,1 3,6 1,0
13.12.2017 19:00:00 5,0 4,5 4,8 28 15 47 25 S 987,6 8 0,0
13.12.2017 18:00:00 5,1 4,8 4,8 24 13 36 19 SSW 989,2 9 0,0
13.12.2017 17:00:00 4,5 4,4 4,0 13 7 25 14 S 990,6 8 0,0
13.12.2017 16:00:00 4,2 4,2 4,1 15 8 29 16 SSW 991,9 6 0,0
13.12.2017 15:00:00 4,1 3,9 4,0 18 10 36 19 SSW 992,5 6 0,0
13.12.2017 14:00:00 4,1 3,7 - 28 15 47 25 SW 993,5 10 0,0
13.12.2017 13:00:00 4,1 3,5 - 24 13 47 25 SSW 994,6 10 0,0
13.12.2017 12:00:00 3,7 3,1 3,5 28 15 47 25 S 995,9 10 0,0
13.12.2017 11:00:00 3,3 2,6 2,9 28 15 47 25 S 997,1 10 0,0
13.12.2017 10:00:00 2,4 2,0 2,4 29 16 50 27 S 998,3 7 0,0
13.12.2017 09:00:00 2,4 1,9 2,3 29 16 50 27 S 999,6 6 1,0
13.12.2017 08:00:00 2,3 1,4 2,0 28 15 40 21 S 1000,7 8 0,2
13.12.2017 07:00:00 2,1 1,0 1,9 28 15 40 21 S 1002,1 10 0,0
13.12.2017 06:00:00 2,1 0,9 1,9 28 15 47 25 S 1003,1 10 0,0
13.12.2017 05:00:00 1,9 0,5 1,5 26 14 43 23 S 1004,3 10 0,0
13.12.2017 04:00:00 1,6 0,1 1,0 24 13 40 21 S 1005,4 10 0,0
13.12.2017 03:00:00 1,1 -0,1 0,7 22 12 36 19 S 1006,7 10 0,0
13.12.2017 02:00:00 1,3 0,1 0,6 22 12 32 18 S 1007,3 10 0,0
13.12.2017 01:00:00 1,1 0,5 0,5 18 10 29 16 S 1008,3 7 0,0
13.12.2017 00:00:00 1,3 0,9 0,8 18 10 36 19 SSW 1009,0 5 0,0
12.12.2017 23:00:00 1,2 1,0 0,9 24 13 36 19 SSW 1009,5 4,0 0,0
12.12.2017 22:00:00 1,4 0,4 0,6 18 10 32 18 SSW 1009,6 10 0,0
12.12.2017 21:00:00 1,2 0,4 0,3 15 8 25 14 SSW 1009,4 10 0,0
12.12.2017 20:00:00 1,5 0,7 0,8 13 7 25 14 SSW 1009,4 10 0,3
12.12.2017 19:00:00 1,3 0,5 0,7 16 9 25 14 SW 1009,1 10 0,0
12.12.2017 18:00:00 1,2 0,2 0,6 15 8 22 12 SSW 1008,6 10 0,0
12.12.2017 17:00:00 2,8 1,4 2,4 13 7 29 16 SW 1008,3 10 0,0
12.12.2017 16:00:00 3,4 1,3 2,8 18 10 29 16 WSW 1007,5 10 0,0
12.12.2017 15:00:00 4,3 1,5 4,0 15 8 22 12 WSW 1006,3 10 0,0
12.12.2017 14:00:00 5,7 1,4 5,6 9 5 14 8 WNW 1005,3 10 0,0
12.12.2017 13:00:00 4,4 0,6 3,7 15 8 22 12 W 1004,5 10 0,0
12.12.2017 12:00:00 3,5 2,4 3,0 5 3 14 8 S 1003,6 10 0,0
12.12.2017 11:00:00 2,6 1,8 2,2 9 5 14 8 W 1002,6 10 0,0
12.12.2017 10:00:00 2,4 1,5 2,1 16 9 36 19 N 1001,4 10 0,2
12.12.2017 09:00:00 3,0 1,1 2,2 28 15 43 23 N 999,9 10 0,1
12.12.2017 08:00:00 3,2 1,5 1,9 16 9 43 23 NNW 998,1 10 0,0
12.12.2017 07:00:00 2,2 1,0 1,5 24 13 40 21 NNW 996,3 10 0,1
12.12.2017 06:00:00 2,1 0,6 1,1 26 14 47 25 NNW 994,8 10 0,7
12.12.2017 05:00:00 1,3 0,1 0,7 13 7 29 16 NNW 993,4 10 0,0
12.12.2017 04:00:00 2,0 0,0 1,3 28 15 40 21 NNW 991,8 10 0,0
12.12.2017 03:00:00 2,1 -1,4 1,4 18 10 32 18 N 990,7 10 0,0
12.12.2017 02:00:00 2,5 -1,4 1,9 22 12 40 21 N 989,5 10 0,0
12.12.2017 01:00:00 2,3 -0,9 1,3 21 11 40 21 N 988,6 10 0,0
12.12.2017 00:00:00 1,9 -0,5 0,9 28 15 47 25 NNE 987,2 10 0,0
11.12.2017 23:00:00 1,7 -0,3 0,6 37 20 50 27 NNE 986,1 10 0,0
11.12.2017 22:00:00 1,4 0,4 0,6 37 20 50 27 NNE 985,2 10 0,4
11.12.2017 21:00:00 1,1 0,6 0,4 34 18 50 27 NE 984,3 10 0,8
11.12.2017 20:00:00 0,7 0,4 0,3 28 15 36 19 NE 983,6 5 1,3
11.12.2017 19:00:00 0,4 0,4 0,3 22 12 36 19 NE 983,1 3,3 0,7
11.12.2017 18:00:00 0,5 0,5 0,3 29 16 43 23 NE 983,0 8 0,9
11.12.2017 17:00:00 0,0 0,0 0,1 31 17 47 25 NE 982,2 6 0,4
11.12.2017 16:00:00 0,0 -0,2 0,1 26 14 36 19 NE 982,9 2,3 0,2
11.12.2017 15:00:00 0,2 -1,0 0,1 18 10 36 19 NE 983,2 6 0,0
11.12.2017 14:00:00 0,1 -1,4 0,0 21 11 29 16 ENE 982,9 10 0,0
11.12.2017 13:00:00 0,2 -1,8 0,0 16 9 25 14 E 984,3 10 0,0
11.12.2017 12:00:00 0,4 -1,7 0,1 15 8 18 10 E 985,3 10 0,0
11.12.2017 11:00:00 0,6 -1,7 0,2 13 7 25 14 E 985,9 10 0,0
11.12.2017 10:00:00 0,8 -1,5 0,2 11 6 18 10 ESE 985,8 10 0,0
11.12.2017 09:00:00 0,7 -1,3 0,0 11 6 25 14 E 985,2 10 0,0
11.12.2017 08:00:00 1,2 -1,3 0,0 15 8 22 12 E 983,7 10 0,0
11.12.2017 07:00:00 -0,1 -1,2 -1,9 11 6 14 8 E 983,7 10 0,0
11.12.2017 06:00:00 -1,5 -1,7 -2,4 4 2 7 4 E 984,6 10 0,0
11.12.2017 05:00:00 0,4 -0,2 -0,2 2 1 14 8 SSE 985,2 10 0,0
11.12.2017 04:00:00 0,0 -0,6 -0,5 9 5 11 6 WSW 984,4 10 0,0
11.12.2017 03:00:00 0,7 -0,2 0,4 8 4 11 6 WSW 983,3 10 0,0
11.12.2017 02:00:00 0,9 -0,1 0,5 9 5 14 8 W 982,5 10 0,0
11.12.2017 01:00:00 0,8 -0,5 0,2 8 4 11 6 N 980,5 10 0,0
11.12.2017 00:00:00 0,8 0,1 0,3 9 5 22 12 NNE 979,4 10 0,0
10.12.2017 23:00:00 0,5 -0,1 0,2 16 9 29 16 NNE 977,6 10 0,0
10.12.2017 22:00:00 0,2 -0,2 -0,1 24 13 32 18 NNE 976,2 10 0,0
10.12.2017 21:00:00 0,1 -0,1 -0,1 22 12 36 19 NNE 975,0 9 0,1
10.12.2017 20:00:00 -0,1 -0,1 -0,1 26 14 36 19 ENE 973,7 2,8 0,1
10.12.2017 19:00:00 -0,1 -0,1 0,0 24 13 40 21 ENE 973,6 3,2 0,0
10.12.2017 18:00:00 0,0 0,0 0,0 26 14 40 21 E 974,0 7 0,1
10.12.2017 17:00:00 0,0 0,0 - 22 12 36 19 E 975,1 3,0 0,2
10.12.2017 16:00:00 0,0 0,0 0,2 24 13 43 23 E 976,3 3,3 0,3
10.12.2017 15:00:00 0,5 0,1 0,5 22 12 32 18 ESE 977,6 6 0,2
10.12.2017 14:00:00 0,6 0,2 0,6 21 11 40 21 ESE 979,4 2,7 0,2
10.12.2017 13:00:00 0,8 0,1 0,8 21 11 36 19 SE 981,5 10 0,0
10.12.2017 12:00:00 1,1 0,5 1,1 16 9 29 16 SE 983,7 8 0,0

tt = Température de l'air
td = dewpoint
tt 5cm = Température de l'air 5cm
ff = Vitesse du vent
fx = gusts
dd = Direction du vent
ppp = reduced air pressure
vv = visibility
rr = Quantités de précipitations

stations d'obs. à proximité